Theta_e
327 329 330 328 333 334 333 331 328 330 331 330 330 330 329 333 337 345 339 338 338 337 328 334 335 335 334 333 332 332 329 324 320 324 328 330 322 326 328 327 328 327 324 326 325 317 315 313 315
329 330 329 331 334 335 334 330 330 332 333 332 331 332 330 335 337 333 340 338 339 337 326 331 334 335 333 332 332 333 329 325 317 324 329 324 327 329 328 326 328 327 328 325 324 316 314 313 314
328 326 328 333 335 336 335 330 327 333 333 333 333 331 333 336 337 336 339 337 338 338 334 330 331 333 331 332 331 332 329 327 323 321 328 328 326 328 327 326 326 327 326 325 323 315 313 313 313
326 328 328 332 334 334 333 330 328 332 332 331 333 334 335 335 337 339 335 337 338 338 335 329 329 330 330 331 331 331 328 328 325 319 328 326 322 327 327 325 326 326 326 325 318 313 313 313 312
327 328 331 334 334 333 331 330 329 329 330 332 333 332 336 334 337 338 337 337 337 337 335 328 329 328 329 331 329 330 325 328 325 317 315 322 319 324 327 325 326 326 323 320 314 314 313 313 312
326 328 332 334 333 332 330 329 328 329 330 332 331 330 337 336 338 337 337 337 337 336 335 328 328 329 329 329 328 326 327 328 327 319 314 312 313 319 326 326 326 326 327 325 315 313 313 313 312
327 329 331 330 331 330 329 327 327 328 330 330 330 329 336 333 338 335 333 338 337 335 335 335 326 328 329 327 329 323 329 330 328 326 316 312 312 314 317 320 318 319 316 314 313 313 313 313 312
325 326 328 327 329 330 324 325 326 326 329 331 331 330 333 334 330 332 338 337 337 335 335 335 329 325 327 325 325 322 328 331 329 329 321 313 311 312 313 313 316 316 314 313 313 313 313 313 313
326 326 326 327 327 327 323 323 326 326 327 329 332 331 332 334 328 331 337 336 337 336 334 334 333 329 327 325 323 320 327 330 329 329 325 318 313 312 313 313 313 313 314 313 313 313 313 313 313
326 327 326 325 324 324 323 323 322 325 327 328 330 332 331 331 326 329 335 336 336 335 334 333 333 332 331 331 324 320 319 330 330 329 325 318 315 313 313 313 313 313 314 313 313 314 314 314 315
326 327 325 325 324 324 324 324 323 324 325 326 328 331 332 330 327 329 333 336 335 335 334 331 331 330 330 329 326 317 318 330 333 330 324 319 323 317 315 314 313 313 314 314 314 314 314 316 320
327 326 326 325 325 324 324 324 325 324 322 324 326 327 333 333 329 327 328 333 335 335 334 333 330 329 326 327 322 322 328 330 330 329 330 321 321 314 313 312 313 313 313 313 314 314 315 315 315
326 326 326 325 325 326 326 325 325 325 325 324 322 324 330 333 331 330 330 331 330 332 335 333 332 330 329 327 324 329 328 329 329 331 331 328 320 315 313 313 314 314 313 314 315 315 316 316 315
325 325 325 324 324 324 324 323 323 324 325 322 322 321 324 331 333 334 333 335 330 326 332 334 332 332 331 328 326 324 328 326 325 325 324 320 319 320 317 313 314 314 314 314 315 315 318 317 316
324 325 324 324 324 324 323 322 322 323 322 324 324 321 323 324 330 333 333 333 330 325 326 332 332 330 332 331 328 327 325 325 326 323 323 321 319 320 319 316 313 314 315 316 317 319 319 318 319
325 324 326 324 323 323 322 323 321 321 322 323 323 324 323 322 323 327 331 333 331 327 324 325 331 328 326 332 332 330 328 326 326 325 323 321 317 317 318 317 314 314 315 316 316 316 317 317 318
325 326 324 324 323 322 322 323 322 321 322 323 323 324 325 325 324 325 326 330 329 325 326 328 327 325 323 327 331 331 331 330 329 327 326 324 322 318 316 315 313 313 315 315 315 315 315 317 318
325 324 323 322 322 322 321 322 321 322 321 321 321 322 323 325 326 325 324 325 327 330 327 331 329 325 324 323 327 331 332 331 330 329 328 326 325 324 319 316 314 314 315 315 316 316 316 317 321
321 321 321 320 321 321 321 320 319 320 320 320 321 321 321 322 323 324 324 324 324 325 330 330 327 322 324 324 323 328 330 331 329 330 330 328 327 326 327 320 316 315 316 315 316 316 316 317 319
322 322 322 320 320 320 320 320 318 318 318 319 320 320 320 320 320 319 321 324 324 323 323 322 323 322 321 323 322 323 324 326 327 329 329 330 328 328 328 328 325 316 315 316 315 315 315 315 318
321 322 320 321 320 320 319 320 319 318 318 318 318 319 319 320 320 320 319 318 322 323 323 323 322 323 324 324 326 328 329 329 330 328 327 326 328 329 329 329 329 328 323 316 314 315 315 315 315
321 319 320 320 321 321 319 320 318 317 317 317 318 319 319 319 318 319 319 319 319 320 320 319 319 320 322 323 331 331 328 326 324 323 322 322 324 327 329 329 329 329 329 329 326 320 315 315 315
319 318 319 320 320 320 320 318 317 317 317 316 317 318 318 318 318 319 319 319 319 319 319 319 323 322 320 322 325 329 331 329 327 325 326 325 325 324 324 326 328 329 329 329 329 328 327 322 316
319 320 319 320 320 323 319 319 318 316 316 316 317 318 318 318 318 317 317 317 316 316 317 317 318 320 321 319 320 325 330 329 330 327 328 328 326 324 324 325 325 326 328 329 329 329 329 329 328
319 320 322 323 322 322 318 319 318 316 316 316 316 317 317 316 316 316 314 312 312 314 313 312 314 315 316 318 320 323 327 330 330 328 327 328 328 327 324 324 326 325 324 325 328 329 329 329 329
319 320 321 324 322 318 314 316 316 316 316 316 316 316 316 316 315 313 312 311 312 313 314 313 310 312 315 317 318 322 323 326 329 330 330 329 328 327 326 326 326 326 325 325 325 327 328 329 329
317 320 318 319 312 315 315 316 315 313 313 314 314 315 314 313 314 313 312 311 311 312 311 311 313 311 310 314 317 319 322 324 325 326 329 329 329 329 329 329 328 327 327 326 325 325 327 326 327
315 315 317 318 321 317 314 314 313 314 314 312 312 313 314 313 312 312 312 312 312 311 311 311 310 313 311 310 314 317 319 322 323 325 326 327 328 329 329 330 330 329 328 327 326 326 325 329 328
317 319 317 317 318 317 315 312 314 313 313 312 313 313 311 311 311 311 310 309 310 311 311 311 311 311 312 310 310 313 316 320 322 324 324 324 325 326 328 328 329 330 329 328 327 326 326 326 328
315 316 317 317 317 314 315 314 313 311 312 314 313 311 310 310 311 311 310 309 309 309 309 310 311 311 310 310 309 310 313 314 320 322 323 324 325 325 325 327 328 328 327 325 325 326 326 327 328
Wind_Speed
10 13 10 8 2 2 5 5 5 4 3 5 7 7 4 14 5 4 12 11 11 9 10 10 9 10 9 6 5 4 4 4 3 7 9 10 10 14 11 12 12 12 12 13 14 14 14 16 15
8 10 6 5 2 5 5 7 11 10 7 5 3 5 2 5 6 8 12 15 15 8 11 10 10 10 8 6 6 6 6 5 5 9 9 10 11 13 10 11 12 11 13 14 13 13 13 14 14
9 8 5 2 3 3 3 8 8 8 4 4 1 2 4 5 5 7 6 19 14 9 9 11 10 9 7 6 7 5 6 6 5 8 10 10 12 14 9 13 10 11 11 12 11 12 11 12 13
13 4 5 2 8 4 3 6 8 8 4 0 5 2 5 3 3 6 10 17 15 11 9 10 10 8 7 7 7 5 4 4 5 5 10 8 11 14 10 11 9 10 10 10 10 10 11 11 11
8 7 4 5 7 6 4 6 5 4 2 8 2 1 4 3 5 7 15 16 14 12 10 9 11 10 8 7 5 5 3 3 4 3 5 7 9 13 11 10 12 10 7 9 9 8 9 9 9
5 2 4 5 7 3 6 13 8 8 8 8 1 7 5 3 7 9 17 15 13 13 11 11 11 10 9 8 7 6 5 3 3 3 2 2 4 9 11 10 10 11 9 7 6 6 6 7 8
5 4 6 11 7 8 4 6 5 9 10 5 3 4 5 4 12 9 14 16 13 13 12 9 12 12 12 11 10 8 8 6 3 1 2 3 2 3 7 8 8 9 8 7 4 4 4 5 6
6 4 6 8 5 6 5 3 1 4 4 4 5 3 5 7 10 11 12 15 15 14 12 9 10 12 13 13 12 11 12 9 6 3 2 3 4 4 5 6 8 8 7 6 4 2 2 3 3
5 3 4 8 9 6 7 5 4 3 6 2 2 1 4 10 7 12 14 14 14 14 15 12 9 9 10 12 14 13 14 12 11 7 5 6 6 7 7 7 7 7 6 6 6 3 1 1 1
4 4 8 10 5 6 15 6 15 3 4 8 7 9 7 10 8 12 15 17 17 17 15 15 16 13 10 9 11 16 17 17 16 11 9 7 7 9 9 8 8 9 9 9 7 5 3 1 1
4 8 12 16 6 5 8 10 10 10 5 8 2 10 12 11 10 13 14 17 20 16 15 17 17 16 16 17 15 16 19 17 16 12 11 10 11 11 11 9 10 12 13 12 9 6 4 4 0
12 15 15 17 6 3 9 12 7 13 16 12 10 1 12 13 13 14 15 16 18 17 17 18 17 17 17 17 15 13 16 16 16 15 14 12 16 14 15 13 13 14 13 11 10 9 8 6 7
15 11 21 17 9 6 13 15 13 16 16 17 13 14 10 15 13 13 14 15 17 20 19 18 20 18 18 19 16 16 17 21 20 19 18 18 17 17 15 16 14 15 14 13 12 11 10 10 9
9 9 16 19 9 10 12 15 16 14 12 11 13 13 12 15 14 14 15 19 19 19 23 20 19 22 20 20 20 21 20 19 19 19 19 19 19 19 18 19 18 18 16 15 15 13 13 12 10
6 8 11 12 11 10 11 9 10 25 23 21 16 14 14 14 15 18 17 19 20 18 18 23 23 21 25 22 22 22 23 24 23 21 22 22 21 21 20 21 22 21 19 18 16 15 16 14 12
4 8 10 9 17 14 7 12 14 22 26 22 23 26 19 19 18 17 19 21 21 19 17 21 25 25 22 27 26 24 24 25 25 25 25 24 23 23 24 23 23 22 22 21 21 20 19 17 16
8 7 12 12 20 5 9 6 11 12 7 19 19 21 22 24 20 17 18 22 22 20 20 20 22 25 24 25 28 27 27 27 27 27 27 26 27 25 25 25 24 24 24 24 22 22 20 18 17
9 13 12 14 2 3 9 12 10 22 16 13 17 19 20 22 18 17 19 21 23 25 22 25 24 23 24 24 26 31 30 29 27 29 30 29 29 27 27 28 27 27 27 26 25 23 21 21 18
14 14 11 9 3 2 6 11 10 22 23 20 19 23 24 24 21 20 21 23 26 25 28 28 28 24 25 29 29 33 36 34 32 31 30 30 31 31 28 29 30 29 30 29 26 24 24 25 23
17 17 18 10 7 2 7 14 13 20 22 24 25 27 28 27 28 29 27 27 29 30 29 30 31 28 31 31 30 32 35 36 35 35 33 32 33 33 31 31 31 32 33 32 30 28 28 27 26
18 17 14 13 7 2 5 15 13 15 32 38 38 36 31 30 30 29 24 25 30 31 32 30 34 33 34 34 33 33 32 34 37 39 39 38 36 35 35 35 33 33 34 34 33 31 31 31 28
17 10 9 10 3 6 3 10 8 8 14 14 12 17 25 28 24 24 26 26 23 23 28 29 28 31 36 36 36 38 39 39 40 39 36 38 38 38 38 38 38 37 35 36 35 33 34 33 33
16 5 8 12 10 4 12 5 8 3 10 10 17 18 18 17 13 3 3 7 9 16 19 18 24 29 29 32 37 41 44 45 42 41 41 38 38 37 36 38 40 40 40 39 38 38 36 36 36
2 7 7 5 4 8 23 8 21 12 12 12 13 8 2 9 5 3 3 5 4 7 13 15 21 28 32 32 34 39 46 47 46 44 43 43 41 40 38 38 39 40 41 41 41 40 39 38 37
7 8 4 6 6 11 10 10 18 10 9 4 6 8 3 8 6 6 4 9 10 10 9 9 15 22 24 29 33 36 42 46 47 46 44 44 44 43 42 40 40 40 40 40 40 42 43 42 42
12 13 5 5 5 6 7 9 8 2 5 7 2 2 5 7 9 6 12 14 12 13 15 15 13 13 20 24 28 34 35 42 47 47 45 44 42 43 41 41 41 40 38 38 40 43 44 43 44
2 10 5 1 1 2 5 6 5 8 6 3 1 7 15 14 7 8 12 16 14 21 20 22 19 17 15 19 25 29 34 36 39 42 43 41 42 40 39 40 41 41 40 38 37 39 42 43 43
6 9 4 2 5 3 4 5 4 6 9 8 11 16 9 6 8 12 16 20 21 23 24 25 24 21 20 18 20 26 30 34 36 37 39 40 41 39 39 38 40 42 41 39 38 38 38 41 43
6 4 7 6 3 1 1 4 4 7 15 10 10 8 11 11 11 14 15 18 19 22 24 24 26 25 23 22 19 21 26 30 33 35 37 37 36 38 37 37 39 40 40 40 40 40 39 41 42
5 4 8 3 4 2 3 5 6 10 10 15 10 11 11 13 12 12 17 19 21 29 30 30 28 28 27 24 23 21 22 25 29 32 35 34 34 33 34 37 38 39 38 38 38 39 37 41 42
Wind_Direction
345 8 2 321 315 185 273 62 49 83 97 36 22 12 355 50 14 95 153 145 160 185 157 160 150 148 145 147 135 107 62 37 64 103 107 108 109 119 104 108 110 106 98 101 99 93 88 87 87
342 335 354 279 251 305 45 16 49 47 67 62 42 332 309 96 52 139 167 149 147 185 167 162 156 154 148 146 135 121 67 45 74 99 111 111 114 114 117 107 109 113 103 100 102 96 92 86 87
356 320 298 335 255 283 36 62 54 77 52 345 33 21 8 72 69 126 184 151 150 150 188 158 158 157 154 146 149 123 77 53 55 102 109 114 122 121 122 108 117 112 107 107 103 102 91 86 82
342 292 233 241 274 299 12 41 56 139 172 178 321 136 95 148 150 183 156 155 152 173 202 164 162 159 160 159 158 133 81 56 47 118 121 120 127 128 130 123 130 117 116 112 110 99 91 83 79
336 278 265 247 261 266 107 253 113 330 290 147 204 77 97 120 158 182 148 155 163 178 197 187 172 162 172 170 162 158 125 86 54 114 116 132 132 137 145 138 129 132 135 121 111 102 88 82 80
312 269 285 269 289 33 10 52 35 304 284 108 188 251 103 238 159 168 154 158 171 190 209 195 184 173 179 187 187 182 175 150 114 90 148 134 147 145 147 148 144 146 140 144 123 106 92 84 79
287 291 286 307 314 329 318 55 29 343 312 176 135 314 133 197 194 189 166 167 175 191 216 207 198 188 187 198 194 195 188 187 170 113 147 156 150 160 167 161 159 153 153 143 128 107 96 82 76
299 289 281 289 278 287 73 33 62 306 357 99 131 331 99 210 226 183 172 173 176 195 211 209 205 200 201 205 207 208 204 200 210 223 215 188 190 190 197 188 171 168 161 155 157 161 99 83 81
287 267 255 265 303 355 102 1 136 241 277 295 139 81 129 211 233 188 175 182 183 202 204 204 228 228 209 215 216 211 210 206 221 223 233 227 214 209 205 206 188 184 182 185 197 193 153 102 79
240 256 254 272 14 355 342 4 320 303 249 243 224 220 198 220 221 202 189 189 195 210 212 203 203 226 203 220 226 214 212 211 220 226 228 221 219 218 212 213 203 202 201 208 214 214 222 253 198
251 245 274 290 22 25 324 310 310 317 271 293 296 212 202 228 225 210 205 203 198 209 222 210 216 212 213 204 229 214 207 215 225 242 223 216 210 228 228 217 220 216 214 215 221 232 246 237 249
263 269 281 284 353 14 292 311 301 287 274 308 304 188 211 233 238 228 220 217 213 199 215 225 217 220 219 218 225 209 205 218 221 224 228 217 220 230 232 230 228 229 229 230 226 229 236 249 245
258 253 278 284 287 291 284 282 269 280 285 289 277 274 216 236 243 239 234 242 228 207 213 220 218 219 226 218 219 213 221 221 224 222 228 229 234 238 230 234 233 232 234 232 239 243 248 249 248
270 296 267 266 255 270 271 269 280 263 279 257 263 256 251 230 240 237 234 235 243 229 206 221 226 220 226 229 226 216 224 238 236 232 235 235 237 238 238 234 236 240 239 237 238 240 246 255 252
258 291 275 260 251 241 290 276 248 256 251 255 255 249 245 237 232 235 243 241 250 246 223 207 229 233 219 231 235 233 228 229 239 238 238 242 238 236 242 241 237 238 238 237 235 236 244 249 252
260 245 264 247 246 228 144 263 296 288 236 241 256 255 248 231 232 237 237 239 251 245 237 222 223 238 233 228 234 239 239 238 239 241 238 244 245 239 241 244 241 239 238 237 234 239 243 246 244
226 248 240 247 245 210 175 266 294 322 250 234 261 273 254 252 234 239 245 240 247 247 236 240 234 237 241 232 235 239 246 244 244 245 244 243 246 246 243 246 245 242 241 241 240 241 245 248 248
229 229 235 256 197 194 273 260 261 271 267 263 268 272 275 273 265 247 247 258 247 247 239 227 242 243 242 242 233 234 236 242 238 244 248 247 248 248 243 244 244 242 243 243 241 242 244 246 244
265 270 263 266 276 211 236 266 272 280 276 269 266 251 255 264 262 261 261 257 256 248 238 230 235 246 245 243 241 233 236 239 237 236 237 248 249 251 247 243 244 243 244 248 247 246 243 243 242
247 256 263 278 121 131 282 274 276 282 282 272 268 264 260 261 261 258 254 253 248 256 252 241 236 239 251 247 251 246 243 244 248 250 245 242 249 251 250 247 246 246 246 247 248 245 246 248 243
244 242 253 269 291 244 295 275 265 253 250 255 252 250 252 257 261 260 258 257 253 251 260 255 244 242 243 253 252 251 248 246 244 247 249 251 250 250 251 252 250 250 250 251 251 249 248 251 249
242 230 254 269 315 264 215 287 225 298 292 286 283 250 238 254 262 263 259 259 264 260 264 267 267 261 252 246 244 247 251 250 254 255 255 254 254 253 252 252 252 251 251 252 253 253 251 250 251
254 225 228 247 254 267 253 272 261 288 272 269 270 253 254 263 269 233 215 255 245 252 258 271 269 265 266 257 248 247 248 256 258 260 256 252 254 257 255 253 251 251 251 252 254 254 252 253 252
266 254 261 255 228 237 241 198 277 256 253 252 254 216 194 93 63 36 316 308 323 285 275 270 259 252 257 262 257 247 248 252 252 255 254 253 253 257 260 257 254 253 252 252 253 255 255 256 256
235 182 226 205 187 235 173 193 237 296 288 292 276 279 329 45 25 54 50 7 3 360 344 314 275 269 261 256 256 252 247 250 254 257 257 255 254 253 259 260 257 256 254 253 252 252 253 255 255
211 223 213 227 189 224 139 224 229 95 230 246 255 301 42 63 103 74 12 353 0 8 0 346 332 300 271 264 254 254 253 249 249 253 255 257 258 260 262 261 262 261 259 257 255 253 254 254 254
185 207 254 159 311 87 197 243 282 248 265 43 300 80 102 87 45 358 339 348 344 351 351 348 340 338 307 274 261 255 255 255 254 255 252 253 255 257 259 258 262 264 261 259 256 254 253 255 254
178 151 205 247 138 204 229 222 227 161 130 89 86 99 90 69 21 2 360 5 2 354 348 341 339 335 334 315 279 258 255 253 257 258 254 252 252 253 250 252 255 261 263 261 257 255 252 247 250
186 183 207 182 212 297 81 249 94 83 125 122 119 101 42 32 27 15 19 360 355 353 348 342 338 331 332 330 311 282 260 254 253 254 258 257 254 250 250 250 249 251 257 261 260 257 254 248 248
283 221 196 190 225 275 100 268 86 117 119 121 106 66 30 20 19 21 7 3 360 358 358 353 344 334 326 326 326 306 283 263 256 257 257 259 259 258 252 249 250 252 250 254 253 252 255 250 247